• In Hungary
  • List of Countries
  • For 7 days
  • Water Temperature
  • Satellite Maps
  • Weather Map
  • News
  • Weather Widgets
  • user-avatar
    Login

    Hourly Weather Skadovsk

    Today, 21 September, Friday

    Time Temperature Precipitation Wind Pressure Humidity
    00:00 +21°C° 0 mm 2 mps 764 mmHg 42%
    01:00 +21°C° 0 mm 2 mps 764 mmHg 42%
    02:00 +20°C° 0 mm 2 mps 764 mmHg 43%
    03:00 +20°C° 0 mm 2 mps 764 mmHg 44%
    04:00 +20°C° 0 mm 2 mps 764 mmHg 45%
    05:00 +19°C° 0 mm 3 mps 764 mmHg 46%
    06:00 +21°C° 0 mm 3 mps 764 mmHg 44%
    07:00 +22°C° 0 mm 3 mps 764 mmHg 43%
    08:00 +25°C° 0 mm 3 mps 764 mmHg 41%
    09:00 +27°C° 0 mm 3 mps 764 mmHg 37%
    10:00 +28°C° 0 mm 3 mps 764 mmHg 34%
    11:00 +30°C° 0 mm 2 mps 764 mmHg 30%
    12:00 +31°C° 0 mm 2 mps 764 mmHg 29%
    13:00 +31°C° 0 mm 2 mps 764 mmHg 27%
    14:00 +32°C° 0 mm 2 mps 764 mmHg 26%
    15:00 +31°C° 0 mm 2 mps 763 mmHg 28%
    16:00 +30°C° 0 mm 2 mps 763 mmHg 31%
    17:00 +29°C° 0 mm 2 mps 763 mmHg 33%
    18:00 +28°C° 0 mm 2 mps 763 mmHg 37%
    19:00 +26°C° 0 mm 2 mps 763 mmHg 40%
    20:00 +24°C° 0 mm 2 mps 763 mmHg 44%
    21:00 +24°C° 0 mm 2 mps 763 mmHg 45%
    22:00 +23°C° 0 mm 1 mps 763 mmHg 47%
    23:00 +22°C° 0 mm 1 mps 763 mmHg 49%

    Tomorrow, 22 September, Saturday

    Time Temperature Precipitation Wind Pressure Humidity
    00:00 +22°C° 0 mm 1 mps 763 mmHg 49%
    01:00 +22°C° 0 mm 1 mps 763 mmHg 50%
    02:00 +21°C° 0 mm 1 mps 763 mmHg 51%
    03:00 +20°C° 0 mm 2 mps 763 mmHg 52%
    04:00 +20°C° 0 mm 2 mps 763 mmHg 54%
    05:00 +19°C° 0 mm 2 mps 763 mmHg 55%
    06:00 +21°C° 0 mm 2 mps 763 mmHg 52%
    07:00 +23°C° 0 mm 2 mps 763 mmHg 48%
    08:00 +25°C° 0 mm 3 mps 763 mmHg 45%
    09:00 +26°C° 0 mm 2 mps 763 mmHg 41%
    10:00 +28°C° 0 mm 2 mps 763 mmHg 37%
    11:00 +29°C° 0 mm 2 mps 763 mmHg 33%
    12:00 +30°C° 0 mm 2 mps 762 mmHg 31%
    13:00 +30°C° 0 mm 2 mps 762 mmHg 30%
    14:00 +31°C° 0 mm 2 mps 762 mmHg 28%
    15:00 +30°C° 0 mm 2 mps 761 mmHg 31%
    16:00 +29°C° 0 mm 2 mps 761 mmHg 34%
    17:00 +28°C° 0 mm 2 mps 761 mmHg 37%
    18:00 +26°C° 0 mm 2 mps 761 mmHg 41%
    19:00 +25°C° 0 mm 2 mps 761 mmHg 46%
    20:00 +23°C° 0 mm 2 mps 762 mmHg 50%
    21:00 +23°C° 0 mm 2 mps 761 mmHg 51%
    22:00 +21°C° 0 mm 2 mps 761 mmHg 52%
    23:00 +21°C° 0 mm 2 mps 761 mmHg 53%

    Day after tomorrow, 23 September, Sunday

    Time Temperature Precipitation Wind Pressure Humidity
    00:00 +20°C° 0 mm 2 mps 761 mmHg 54%
    01:00 +20°C° 0 mm 3 mps 760 mmHg 56%
    02:00 +20°C° 0 mm 3 mps 760 mmHg 57%
    03:00 +20°C° 0 mm 4 mps 760 mmHg 60%
    04:00 +20°C° 0 mm 5 mps 760 mmHg 63%
    05:00 +20°C° 0 mm 6 mps 761 mmHg 66%
    06:00 +18°C° 0.2 mm 7 mps 761 mmHg 70%
    07:00 +17°C° 0.2 mm 8 mps 761 mmHg 74%
    08:00 +16°C° 0.2 mm 9 mps 762 mmHg 78%
    09:00 +16°C° 0.1 mm 9 mps 762 mmHg 72%
    10:00 +16°C° 0.1 mm 9 mps 763 mmHg 67%
    11:00 +16°C° 0.1 mm 8 mps 763 mmHg 62%
    12:00 +18°C° 0 mm 8 mps 764 mmHg 53%
    13:00 +20°C° 0 mm 8 mps 764 mmHg 44%
    14:00 +21°C° 0 mm 8 mps 764 mmHg 36%
    15:00 +21°C° 0 mm 7 mps 764 mmHg 36%
    16:00 +20°C° 0 mm 7 mps 764 mmHg 37%
    17:00 +20°C° 0 mm 6 mps 764 mmHg 37%
    18:00 +19°C° 0 mm 6 mps 765 mmHg 40%
    19:00 +17°C° 0 mm 5 mps 765 mmHg 43%
    20:00 +16°C° 0 mm 5 mps 766 mmHg 46%
    21:00 +15°C° 0 mm 5 mps 766 mmHg 47%
    22:00 +15°C° 0 mm 5 mps 766 mmHg 48%
    23:00 +15°C° 0 mm 4 mps 766 mmHg 49%

    24 September, Monday

    Time Temperature Precipitation Wind Pressure Humidity
    00:00 +14°C° 0 mm 4 mps 766 mmHg 50%
    01:00 +14°C° 0 mm 3 mps 766 mmHg 51%
    02:00 +14°C° 0 mm 2 mps 766 mmHg 52%
    03:00 +14°C° 0 mm 2 mps 766 mmHg 53%
    04:00 +14°C° 0 mm 1 mps 766 mmHg 54%
    05:00 +13°C° 0 mm 1 mps 766 mmHg 54%
    06:00 +15°C° 0 mm 2 mps 765 mmHg 50%
    07:00 +17°C° 0 mm 3 mps 765 mmHg 46%
    08:00 +18°C° 0 mm 4 mps 765 mmHg 42%
    09:00 +20°C° 0 mm 5 mps 764 mmHg 40%
    10:00 +21°C° 0 mm 6 mps 764 mmHg 38%
    11:00 +23°C° 0 mm 7 mps 763 mmHg 36%
    12:00 +23°C° 0 mm 7 mps 763 mmHg 36%
    13:00 +23°C° 0 mm 8 mps 762 mmHg 37%
    14:00 +24°C° 0 mm 8 mps 761 mmHg 37%
    15:00 +23°C° 0 mm 9 mps 761 mmHg 41%
    16:00 +22°C° 0 mm 9 mps 760 mmHg 45%
    17:00 +21°C° 0 mm 9 mps 760 mmHg 49%
    18:00 +21°C° 0 mm 9 mps 759 mmHg 53%
    19:00 +19°C° 0 mm 9 mps 759 mmHg 56%
    20:00 +19°C° 0 mm 9 mps 758 mmHg 59%
    21:00 +19°C° 0 mm 10 mps 758 mmHg 63%
    22:00 +19°C° 0 mm 10 mps 758 mmHg 67%
    23:00 +19°C° 0 mm 10 mps 758 mmHg 71%

    25 September, Tuesday

    Time Temperature Precipitation Wind Pressure Humidity
    00:00 +19°C° 0.1 mm 10 mps 758 mmHg 71%
    01:00 +19°C° 0.1 mm 10 mps 758 mmHg 70%
    02:00 +18°C° 0.1 mm 9 mps 758 mmHg 70%
    03:00 +17°C° 0.6 mm 10 mps 758 mmHg 68%
    04:00 +14°C° 0.6 mm 10 mps 759 mmHg 66%
    05:00 +13°C° 0.6 mm 11 mps 759 mmHg 64%
    06:00 +13°C° 0.8 mm 10 mps 760 mmHg 61%
    07:00 +13°C° 0.8 mm 10 mps 760 mmHg 59%
    08:00 +13°C° 0.8 mm 9 mps 760 mmHg 56%
    09:00 +15°C° 0.1 mm 9 mps 761 mmHg 52%
    10:00 +16°C° 0.1 mm 9 mps 761 mmHg 48%
    11:00 +17°C° 0.1 mm 10 mps 761 mmHg 43%
    12:00 +17°C° 0 mm 10 mps 761 mmHg 41%
    13:00 +17°C° 0 mm 10 mps 761 mmHg 39%
    14:00 +18°C° 0 mm 10 mps 761 mmHg 37%
    15:00 +17°C° 0 mm 10 mps 762 mmHg 38%
    16:00 +16°C° 0 mm 10 mps 762 mmHg 39%
    17:00 +14°C° 0 mm 10 mps 763 mmHg 40%
    18:00 +13°C° 0 mm 10 mps 763 mmHg 41%
    19:00 +13°C° 0 mm 10 mps 764 mmHg 42%
    20:00 +12°C° 0 mm 9 mps 765 mmHg 42%
    21:00 +12°C° 0 mm 9 mps 765 mmHg 43%
    22:00 +11°C° 0 mm 8 mps 765 mmHg 44%
    23:00 +11°C° 0 mm 8 mps 765 mmHg 44%

    26 September, Wednesday

    Time Temperature Precipitation Wind Pressure Humidity
    00:00 +10°C° 0 mm 8 mps 765 mmHg 45%
    01:00 +10°C° 0 mm 8 mps 765 mmHg 46%
    02:00 +9°C° 0 mm 7 mps 766 mmHg 47%
    03:00 +9°C° 0 mm 7 mps 766 mmHg 49%
    04:00 +9°C° 0 mm 7 mps 766 mmHg 51%
    05:00 +8°C° 0 mm 7 mps 766 mmHg 53%
    06:00 +9°C° 0 mm 6 mps 766 mmHg 51%
    07:00 +10°C° 0 mm 5 mps 766 mmHg 49%
    08:00 +12°C° 0 mm 5 mps 766 mmHg 47%
    09:00 +13°C° 0 mm 5 mps 767 mmHg 42%
    10:00 +14°C° 0 mm 5 mps 767 mmHg 38%
    11:00 +15°C° 0 mm 6 mps 767 mmHg 34%
    12:00 +16°C° 0 mm 5 mps 767 mmHg 33%
    13:00 +16°C° 0 mm 5 mps 766 mmHg 32%
    14:00 +17°C° 0 mm 5 mps 766 mmHg 31%
    15:00 +17°C° 0 mm 4 mps 766 mmHg 33%
    16:00 +17°C° 0 mm 4 mps 767 mmHg 35%
    17:00 +16°C° 0 mm 3 mps 767 mmHg 37%
    18:00 +14°C° 0 mm 3 mps 767 mmHg 40%
    19:00 +13°C° 0 mm 3 mps 768 mmHg 44%
    20:00 +12°C° 0 mm 3 mps 768 mmHg 47%
    21:00 +12°C° 0 mm 3 mps 768 mmHg 49%
    22:00 +11°C° 0 mm 3 mps 768 mmHg 52%
    23:00 +11°C° 0 mm 4 mps 768 mmHg 54%
    Show more